�������l�o���
Date,Time,MP-1(��Sv/h),MP-2(��Sv/h),MP-3(��Sv/h),MP-4(��Sv/h),MP-5(��Sv/h),MP-6(��Sv/h),MP-7(��Sv/h),MP-8(��Sv/h),����,����(m/s),���J
2019/09/05,00:00,0.733,1.028,0.713,1.277,0.936,0.418,0.730,0.693,�k�k��,2.0,��
2019/09/05,00:10,0.734,1.030,0.714,1.277,0.937,0.418,0.730,0.691,�k,1.9,��
2019/09/05,00:20,0.733,1.029,0.715,1.278,0.937,0.418,0.729,0.692,�k,2.2,��
2019/09/05,00:30,0.734,1.030,0.714,1.278,0.937,0.418,0.731,0.691,�k,2.3,��
2019/09/05,00:40,0.734,1.030,0.713,1.279,0.936,0.418,0.730,0.692,�k�k��,2.2,��
2019/09/05,00:50,0.733,1.031,0.716,1.276,0.937,0.419,0.729,0.691,�k�k��,2.3,��
2019/09/05,01:00,0.734,1.030,0.715,1.277,0.936,0.417,0.730,0.692,�k,1.9,��
2019/09/05,01:10,0.734,1.030,0.716,1.277,0.939,0.418,0.730,0.691,�k,2.2,��
2019/09/05,01:20,0.732,1.030,0.716,1.278,0.939,0.420,0.729,0.692,�k,2.0,��
2019/09/05,01:30,0.734,1.029,0.715,1.279,0.935,0.418,0.730,0.692,�k,2.0,��
2019/09/05,01:40,0.735,1.030,0.715,1.278,0.937,0.417,0.730,0.694,�k,2.6,��
2019/09/05,01:50,0.734,1.030,0.716,1.278,0.937,0.418,0.730,0.692,�k,2.0,��
2019/09/05,02:00,0.735,1.029,0.716,1.277,0.935,0.417,0.730,0.691,�k,2.6,��
2019/09/05,02:10,0.734,1.031,0.714,1.277,0.935,0.419,0.730,0.693,�k,2.3,��
2019/09/05,02:20,0.734,1.030,0.716,1.279,0.938,0.419,0.732,0.692,�k�k��,2.0,��
2019/09/05,02:30,0.734,1.029,0.715,1.277,0.937,0.417,0.731,0.694,�k�k��,2.0,��
2019/09/05,02:40,0.736,1.030,0.716,1.277,0.937,0.420,0.731,0.692,�k�k��,2.3,��
2019/09/05,02:50,0.735,1.029,0.715,1.278,0.938,0.419,0.731,0.692,�k�k��,2.0,��
2019/09/05,03:00,0.733,1.028,0.716,1.277,0.936,0.419,0.730,0.691,�k,2.3,��
2019/09/05,03:10,0.733,1.031,0.713,1.279,0.937,0.417,0.731,0.692,�k,2.3,��
2019/09/05,03:20,0.734,1.031,0.714,1.276,0.938,0.418,0.731,0.690,�k,2.3,��
2019/09/05,03:30,0.734,1.030,0.714,1.278,0.938,0.419,0.731,0.691,�k,2.3,��
2019/09/05,03:40,0.734,1.030,0.714,1.277,0.937,0.418,0.732,0.693,�k,2.8,��
2019/09/05,03:50,0.735,1.027,0.716,1.278,0.938,0.418,0.731,0.692,�k�k��,2.6,��
2019/09/05,04:00,0.735,1.030,0.716,1.280,0.938,0.419,0.731,0.692,�k�k��,2.5,�L
2019/09/05,04:10,0.734,1.029,0.717,1.278,0.938,0.418,0.730,0.692,�k,2.6,��
2019/09/05,04:20,0.735,1.030,0.715,1.277,0.937,0.418,0.732,0.692,�k,2.3,�L
2019/09/05,04:30,0.734,1.029,0.716,1.278,0.939,0.419,0.731,0.692,�k,2.6,�L
2019/09/05,04:40,0.735,1.030,0.716,1.278,0.936,0.418,0.731,0.693,�k�k��,2.2,�L
2019/09/05,04:50,0.734,1.030,0.716,1.277,0.938,0.419,0.730,0.692,�k,2.2,��
2019/09/05,05:00,0.734,1.031,0.715,1.281,0.937,0.419,0.731,0.693,�k,1.7,��
2019/09/05,05:10,0.735,1.028,0.715,1.277,0.939,0.418,0.731,0.692,�k,2.0,�L
2019/09/05,05:20,0.734,1.029,0.715,1.279,0.938,0.418,0.731,0.691,�k,2.0,��
2019/09/05,05:30,0.732,1.031,0.716,1.279,0.937,0.418,0.730,0.693,�k�k��,2.5,��
2019/09/05,05:40,0.735,1.032,0.715,1.278,0.937,0.417,0.732,0.692,�k,2.0,��
2019/09/05,05:50,0.733,1.029,0.716,1.278,0.936,0.418,0.730,0.693,�k,2.2,��
2019/09/05,06:00,0.734,1.030,0.714,1.278,0.938,0.420,0.730,0.692,�k�k��,2.5,�L
2019/09/05,06:10,0.735,1.032,0.716,1.278,0.936,0.418,0.730,0.693,�k,1.7,�L
2019/09/05,06:20,0.734,1.030,0.714,1.279,0.938,0.418,0.730,0.693,�k�k��,1.5,�L
2019/09/05,06:30,0.734,1.028,0.715,1.281,0.938,0.419,0.732,0.693,�k�k��,1.7,��
2019/09/05,06:40,0.734,1.030,0.716,1.276,0.936,0.418,0.730,0.692,�k�k��,1.9,��
2019/09/05,06:50,0.734,1.030,0.716,1.277,0.938,0.419,0.731,0.693,�k�k��,1.7,��
2019/09/05,07:00,0.734,1.028,0.716,1.280,0.938,0.417,0.732,0.691,�k�k��,1.5,��
2019/09/05,07:10,0.733,1.029,0.715,1.281,0.939,0.416,0.731,0.692,�k��,2.0,��
2019/09/05,07:20,0.734,1.029,0.714,1.279,0.938,0.418,0.731,0.691,�k��,1.9,��
2019/09/05,07:30,0.734,1.030,0.715,1.277,0.937,0.418,0.729,0.691,�k�k��,1.9,�L
2019/09/05,07:40,0.734,1.029,0.714,1.275,0.935,0.418,0.731,0.692,�k�k��,1.4,�L
2019/09/05,07:50,0.733,1.030,0.716,1.275,0.936,0.418,0.731,0.691,�k,1.5,�L
2019/09/05,08:00,0.733,1.030,0.715,1.278,0.937,0.418,0.735,0.691,�k�k��,0.9,�L
2019/09/05,08:10,0.734,1.029,0.716,1.277,0.937,0.418,0.731,0.692,�k�k��,1.4,��
2019/09/05,08:20,0.734,1.029,0.715,1.281,0.936,0.417,0.732,0.690,�k�k��,0.6,��
2019/09/05,08:30,0.735,1.025,0.714,1.278,0.937,0.417,0.730,0.691,�k�k��,0.6,��
2019/09/05,08:40,0.733,1.026,0.714,1.277,0.936,0.417,0.730,0.693,�k,1.2,��
2019/09/05,08:50,0.733,1.025,0.715,1.275,0.938,0.417,0.730,0.691,���k��,0.9,��
2019/09/05,09:00,0.734,1.025,0.713,1.276,0.940,0.415,0.730,0.690,�k�k��,1.1,��
2019/09/05,09:10,0.733,1.025,0.714,1.277,0.936,0.416,0.732,0.691,��,1.2,��
2019/09/05,09:20,0.734,1.023,0.713,1.281,0.939,0.415,0.731,0.689,���k��,1.2,��
2019/09/05,09:30,0.733,1.023,0.715,1.278,0.939,0.417,0.731,0.689,��,1.7,��
2019/09/05,09:40,0.732,1.021,0.714,1.277,0.939,0.417,0.731,0.689,��,1.5,��
2019/09/05,09:50,0.732,1.021,0.714,1.276,0.936,0.417,0.730,0.690,��,2.0,��
2019/09/05,10:00,0.733,1.021,0.713,1.278,0.937,0.417,0.731,0.691,���k��,2.0,��
2019/09/05,10:10,0.733,1.022,0.712,1.277,0.937,0.417,0.733,0.690,���k��,1.7,��
2019/09/05,10:20,0.734,1.025,0.712,1.276,0.937,0.417,0.732,0.690,���k��,1.7,��
2019/09/05,10:30,0.733,1.023,0.712,1.276,0.936,0.417,0.732,0.689,��,2.3,��
2019/09/05,10:40,0.735,1.025,0.711,1.276,0.937,0.417,0.732,0.691,���k��,2.0,��
2019/09/05,10:50,0.733,1.024,0.713,1.277,0.938,0.417,0.732,0.690,�k��,2.0,��
2019/09/05,11:00,0.733,1.027,0.713,1.276,0.938,0.418,0.733,0.691,���k��,0.9,��
2019/09/05,11:10,0.735,1.026,0.713,1.279,0.938,0.417,0.731,0.690,��,2.6,��
2019/09/05,11:20,0.735,1.025,0.714,1.275,0.940,0.418,0.735,0.689,��,2.3,��
2019/09/05,11:30,0.735,1.028,0.713,1.278,0.940,0.417,0.733,0.691,���k��,2.8,��
2019/09/05,11:40,0.737,1.027,0.715,1.277,0.940,0.420,0.733,0.690,���k��,2.9,��
2019/09/05,11:50,0.736,1.030,0.713,1.277,0.939,0.419,0.733,0.690,��,2.5,��
2019/09/05,12:00,0.735,1.030,0.714,1.281,0.940,0.419,0.734,0.692,���k��,2.3,��
2019/09/05,12:10,0.736,1.035,0.716,1.280,0.940,0.419,0.733,0.691,���k��,2.3,��
2019/09/05,12:20,0.734,1.035,0.717,1.281,0.939,0.419,0.730,0.690,���k��,2.3,��
2019/09/05,12:30,0.735,1.031,0.715,1.280,0.942,0.419,0.734,0.691,���쓌,2.3,��
2019/09/05,12:40,0.735,1.031,0.716,1.279,0.941,0.420,0.733,0.693,���쓌,1.9,��
2019/09/05,12:50,0.736,1.036,0.717,1.279,0.940,0.419,0.732,0.692,���쓌,2.3,��
2019/09/05,13:00,0.735,1.032,0.718,1.281,0.941,0.418,0.731,0.691,��,1.9,��
2019/09/05,13:10,0.738,1.032,0.715,1.282,0.941,0.419,0.734,0.690,���쓌,2.6,��
2019/09/05,13:20,0.739,1.031,0.718,1.282,0.941,0.420,0.734,0.691,�쓌,2.2,��
2019/09/05,13:30,0.737,1.033,0.717,1.283,0.944,0.420,0.732,0.693,�쓌,2.0,��
2019/09/05,13:40,0.738,1.033,0.719,1.281,0.943,0.420,0.732,0.692,�쓌,2.8,��
2019/09/05,13:50,0.738,1.033,0.716,1.279,0.943,0.419,0.734,0.691,���쓌,2.0,��
2019/09/05,14:00,0.741,1.031,0.716,1.274,0.943,0.418,0.734,0.692,���쓌,1.5,��
2019/09/05,14:10,0.738,1.029,0.715,1.276,0.943,0.420,0.733,0.692,��,2.3,��
2019/09/05,14:20,0.739,1.034,0.718,1.280,0.946,0.419,0.734,0.691,��,2.0,��
2019/09/05,14:30,0.738,1.034,0.716,1.282,0.946,0.421,0.733,0.694,�쓌,3.1,��
2019/09/05,14:40,0.739,1.035,0.719,1.282,0.944,0.419,0.733,0.691,���쓌,3.1,��
2019/09/05,14:50,0.740,1.034,0.717,1.287,0.946,0.422,0.733,0.692,�쓌,2.6,��
2019/09/05,15:00,0.742,1.035,0.716,1.284,0.945,0.421,0.736,0.692,���쓌,2.9,��
2019/09/05,15:10,0.739,1.035,0.718,1.283,0.945,0.421,0.733,0.691,�쓌,2.0,��
2019/09/05,15:20,0.740,1.037,0.719,1.287,0.946,0.418,0.733,0.691,�쓌,2.9,��
2019/09/05,15:30,0.740,1.038,0.717,1.286,0.943,0.420,0.733,0.692,�쓌,2.5,��
2019/09/05,15:40,0.739,1.038,0.719,1.285,0.945,0.420,0.733,0.691,�쓌,2.3,��
2019/09/05,15:50,0.739,1.040,0.718,1.286,0.943,0.420,0.734,0.691,�쓌,2.8,��
2019/09/05,16:00,0.741,1.042,0.720,1.285,0.943,0.421,0.734,0.691,�쓌,3.0,��
2019/09/05,16:10,0.739,1.042,0.718,1.286,0.942,0.422,0.734,0.692,�쓌,2.3,��
2019/09/05,16:20,0.739,1.041,0.720,1.285,0.945,0.420,0.734,0.692,�쓌,2.3,��
2019/09/05,16:30,0.739,1.042,0.720,1.287,0.944,0.421,0.734,0.691,�쓌,2.5,��
2019/09/05,16:40,0.739,1.042,0.720,1.286,0.946,0.421,0.734,0.691,�쓌,2.8,��
2019/09/05,16:50,0.742,1.043,0.719,1.284,0.945,0.424,0.732,0.692,�쓌,2.3,��
2019/09/05,17:00,0.741,1.041,0.719,1.285,0.946,0.422,0.733,0.694,��쓌,2.6,��
2019/09/05,17:10,0.741,1.043,0.721,1.284,0.942,0.423,0.733,0.694,�쓌,2.0,��
2019/09/05,17:20,0.740,1.044,0.720,1.286,0.944,0.423,0.734,0.695,��쓌,2.6,��
2019/09/05,17:30,0.741,1.042,0.722,1.287,0.945,0.422,0.734,0.693,��쓌,2.8,��
2019/09/05,17:40,0.740,1.043,0.718,1.286,0.946,0.422,0.734,0.695,��쓌,2.6,��
2019/09/05,17:50,0.740,1.042,0.721,1.283,0.946,0.421,0.736,0.694,��,3.2,��
2019/09/05,18:00,0.741,1.044,0.721,1.284,0.946,0.423,0.734,0.693,��쓌,3.2,��
2019/09/05,18:10,0.741,1.043,0.722,1.286,0.946,0.424,0.735,0.695,��쓌,3.2,��
2019/09/05,18:20,0.738,1.043,0.722,1.287,0.947,0.423,0.735,0.696,��쓌,3.1,��
2019/09/05,18:30,0.738,1.042,0.721,1.287,0.946,0.423,0.735,0.695,��쓌,2.5,��
2019/09/05,18:40,0.739,1.043,0.721,1.290,0.945,0.423,0.734,0.693,��쓌,1.7,��
2019/09/05,18:50,0.740,1.044,0.721,1.288,0.946,0.423,0.736,0.694,��쓌,2.5,��
2019/09/05,19:00,0.738,1.043,0.720,1.285,0.948,0.424,0.735,0.694,��쓌,2.2,��
2019/09/05,19:10,0.740,1.044,0.722,1.288,0.947,0.423,0.734,0.694,��쓌,2.0,��
2019/09/05,19:20,0.740,1.043,0.722,1.286,0.946,0.424,0.734,0.694,��쓌,2.2,��
2019/09/05,19:30,0.740,1.043,0.720,1.288,0.947,0.424,0.735,0.696,��쓌,2.6,��
2019/09/05,19:40,0.740,1.043,0.720,1.287,0.949,0.424,0.734,0.696,��쓌,2.3,��
2019/09/05,19:50,0.739,1.042,0.719,1.286,0.946,0.422,0.733,0.694,��,2.3,��
2019/09/05,20:00,0.739,1.042,0.722,1.289,0.945,0.423,0.733,0.695,��,1.7,��
2019/09/05,20:10,0.740,1.042,0.723,1.286,0.948,0.422,0.735,0.694,��쓌,1.5,��
2019/09/05,20:20,0.741,1.042,0.722,1.286,0.948,0.422,0.735,0.695,��,2.3,��
2019/09/05,20:30,0.739,1.041,0.721,1.286,0.946,0.424,0.733,0.694,��,2.3,��
2019/09/05,20:40,0.741,1.042,0.722,1.286,0.947,0.424,0.733,0.695,��쐼,2.5,��
2019/09/05,20:50,0.740,1.043,0.721,1.288,0.947,0.423,0.736,0.695,��쐼,2.0,��
2019/09/05,21:00,0.740,1.042,0.724,1.288,0.947,0.423,0.735,0.693,��쐼,2.2,��
2019/09/05,21:10,0.740,1.044,0.723,1.289,0.947,0.422,0.736,0.695,��,2.5,��
2019/09/05,21:20,0.741,1.040,0.722,1.290,0.948,0.425,0.733,0.695,��,2.6,��
2019/09/05,21:30,0.740,1.041,0.721,1.287,0.948,0.422,0.734,0.695,��,2.5,��
2019/09/05,21:40,0.739,1.040,0.720,1.286,0.950,0.426,0.735,0.695,��쐼,2.6,��
2019/09/05,21:50,0.742,1.041,0.723,1.290,0.947,0.424,0.733,0.694,��,2.5,��
2019/09/05,22:00,0.741,1.040,0.722,1.288,0.949,0.423,0.735,0.695,��,2.3,��
2019/09/05,22:10,0.743,1.042,0.724,1.288,0.948,0.424,0.734,0.694,��,3.0,��
2019/09/05,22:20,0.741,1.041,0.723,1.288,0.949,0.425,0.735,0.695,��,2.5,��
2019/09/05,22:30,0.740,1.041,0.721,1.287,0.949,0.424,0.736,0.694,��쐼,1.2,��
2019/09/05,22:40,0.740,1.041,0.724,1.290,0.949,0.424,0.736,0.695,�쐼,0.8,��
2019/09/05,22:50,0.739,1.041,0.722,1.289,0.950,0.426,0.735,0.693,�쐼,0.9,��
2019/09/05,23:00,0.740,1.042,0.724,1.288,0.949,0.424,0.737,0.696,���쐼,1.1,��
2019/09/05,23:10,0.743,1.040,0.722,1.287,0.948,0.423,0.736,0.695,��,1.2,��
2019/09/05,23:20,0.742,1.042,0.722,1.287,0.949,0.425,0.737,0.695,���쐼,0.6,��
2019/09/05,23:30,0.741,1.041,0.723,1.287,0.948,0.424,0.736,0.695,��,0.8,��
2019/09/05,23:40,0.741,1.041,0.724,1.288,0.948,0.425,0.736,0.696,-,CALM,��
2019/09/05,23:50,0.740,1.044,0.724,1.290,0.948,0.426,0.737,0.695,�쐼,0.6,��
